K7JKM Weather Reports


time (UTC)temp
C
wind
direction
speed
KPH
gust
KPH
rain 1hr
cm
rain 24hr
cm
rain mn
cm
humidity
%
barometer
mb
20260506004505 19 143 0.0 1.6 0.00 0.00 0.00 52 1015.8
20260506003004 19 110 0.0 1.6 0.00 0.00 0.00 52 1015.8
20260506001522 20 270 0.0 1.6 0.00 0.00 0.00 50 1015.9
20260506000018 20 234 0.0 1.6 0.00 0.00 0.00 50 1015.9
20260505234531 20 152 0.0 4.8 0.00 0.00 0.00 48 1016.1
20260505233013 19 254 0.0 1.6 0.00 0.00 0.00 51 1016.3
20260505231511 19 63 0.0 1.6 0.00 0.00 0.00 50 1016.3
20260505230008 19 81 0.0 1.6 0.00 0.00 0.00 51 1016.4
20260505224506 18 292 0.0 3.2 0.00 0.00 0.00 52 1016.5
20260505223025 18 327 0.0 3.2 0.00 0.00 0.00 54 1016.7
20260505221523 17 297 0.0 1.6 0.00 0.00 0.00 56 1016.8
20260505220018 17 307 0.0 3.2 0.00 0.00 0.00 55 1016.9
20260505214529 16 28 0.0 1.6 0.00 0.00 0.00 57 1016.9
20260505213013 16 47 0.0 1.6 0.00 0.00 0.00 58 1017.0
20260505211513 16 335 0.0 3.2 0.00 0.00 0.00 57 1017.0
20260505210008 16 46 0.0 1.6 0.00 0.00 0.00 59 1017.0
20260505204525 16 308 0.0 0.0 0.00 0.00 0.00 58 1017.1
20260505203035 16 295 0.0 6.4 0.00 0.00 0.00 59 1017.2
20260505201529 16 293 0.0 1.6 0.00 0.00 0.00 58 1017.2
20260505200021 16 302 0.0 3.2 0.00 0.00 0.00 58 1017.2
20260505194518 16 304 0.0 3.2 0.00 0.00 0.00 57 1017.3
20260505193016 16 291 0.0 1.6 0.00 0.00 0.00 56 1017.3
20260505191527 16 72 0.0 0.0 0.00 0.00 0.00 56 1017.4
20260505190029 16 126 0.0 1.6 0.00 0.00 0.00 55 1017.4
20260505184527 16 169 0.0 1.6 0.00 0.00 0.00 57 1017.4
20260505183027 15 94 0.0 1.6 0.00 0.00 0.00 58 1017.3
20260505181525 15 123 0.0 1.6 0.00 0.00 0.00 58 1017.3
20260505180050 15 307 0.0 1.6 0.00 0.00 0.00 58 1017.3
20260505174544 15 271 0.0 1.6 0.00 0.00 0.00 58 1017.2
20260505173034 15 300 0.0 1.6 0.00 0.00 0.00 58 1017.2
20260505171523 15 121 0.0 0.0 0.00 0.00 0.00 58 1017.1
20260505170013 14 232 0.0 0.0 0.00 0.00 0.00 59 1017.0
20260505164511 14 204 0.0 0.0 0.00 0.00 0.00 59 1016.9
20260505163009 13 148 0.0 0.0 0.00 0.00 0.00 60 1016.8
20260505161506 13 131 0.0 0.0 0.00 0.00 0.00 60 1016.8
20260505153020 12 293 0.0 0.0 0.00 0.00 0.00 62 1016.7
20260505151519 12 293 0.0 0.0 0.00 0.00 0.00 62 1016.7
20260505124514 11 136 0.0 0.0 0.00 0.00 0.00 64 1015.7
20260505123012 11 167 0.0 0.0 0.00 0.00 0.00 64 1015.6
20260505121508 11 119 0.0 0.0 0.00 0.00 0.00 64 1015.7
20260505120031 11 184 0.0 0.0 0.00 0.00 0.00 64 1015.6
20260505114526 11 212 0.0 1.6 0.00 0.00 0.00 65 1015.6
20260505113024 11 207 0.0 1.6 0.00 0.00 0.00 65 1015.5
20260505111521 11 195 0.0 0.0 0.00 0.00 0.00 65 1015.4
20260505101534 11 139 0.0 0.0 0.00 0.00 0.00 65 1015.2
20260505100025 11 171 0.0 0.0 0.00 0.00 0.00 66 1015.2
20260505094503 11 162 0.0 1.6 0.00 0.00 0.00 67 1015.1
20260505093008 11 148 0.0 0.0 0.00 0.00 0.00 69 1015.0
20260505091504 10 141 0.0 0.0 0.00 0.00 0.00 70 1015.0
20260505090006 10 143 0.0 0.0 0.00 0.00 0.00 69 1014.9
20260505084505 10 143 0.0 0.0 0.00 0.00 0.00 68 1014.9
20260505083008 10 143 0.0 0.0 0.00 0.00 0.00 68 1015.0
20260505081507 10 143 0.0 0.0 0.00 0.00 0.00 68 1014.9
20260505080006 10 150 0.0 0.0 0.00 0.00 0.00 68 1014.7
20260505074506 10 185 0.0 0.0 0.00 0.00 0.00 67 1014.6
20260505073008 10 172 0.0 1.6 0.00 0.00 0.00 67 1014.5
20260505071508 10 174 0.0 0.0 0.00 0.00 0.00 67 1014.4
20260505070011 11 214 0.0 0.0 0.00 0.00 0.00 67 1014.2
20260505064508 11 215 0.0 0.0 0.00 0.00 0.00 67 1014.2
20260505063011 11 214 0.0 0.0 0.00 0.00 0.00 67 1014.1
20260505061511 11 214 0.0 0.0 0.00 0.00 0.00 66 1014.0
20260505060008 11 214 0.0 0.0 0.00 0.00 0.00 66 1014.1
20260505054512 12 176 0.0 6.4 0.00 0.00 0.00 66 1014.0
20260505053012 12 248 0.0 4.8 0.00 0.00 0.00 65 1013.9
20260505051530 12 162 0.0 4.8 0.00 0.00 0.00 65 1013.8
20260505041514 13 166 0.0 1.6 0.00 0.00 0.00 62 1012.8
20260505040016 13 309 0.0 4.8 0.00 0.00 0.00 62 1012.5
20260505034516 13 236 0.0 8.0 0.00 0.00 0.00 61 1012.3
20260505033016 14 346 1.6 12.9 0.00 0.00 0.00 60 1012.2
20260505031518 15 302 0.0 8.0 0.00 0.00 0.00 58 1012.0
20260505030020 16 355 0.0 8.0 0.00 0.00 0.00 57 1011.8
20260505024521 17 4 0.0 8.0 0.00 0.00 0.00 54 1011.6
20260505023015 17 311 1.6 11.3 0.00 0.00 0.00 54 1011.4
20260505021518 18 311 1.6 6.4 0.00 0.00 0.00 52 1011.4
20260505020008 19 301 0.0 6.4 0.00 0.00 0.00 52 1011.3
20260505014507 20 295 0.0 11.3 0.00 0.00 0.00 51 1011.4
20260505013006 20 219 0.0 9.7 0.00 0.00 0.00 49 1011.4
20260505011504 21 359 0.0 9.7 0.00 0.00 0.00 47 1011.4
20260505010003 22 297 0.0 12.9 0.00 0.00 0.00 47 1011.5